Home   Weather   Sancti Spíritus   Past weeks
Flag for Cuba

Past Weather in Sancti Spíritus, Cuba — Yesterday and Last 2 Weeks

Now
70 °F

Passing clouds.


Feels Like: 70 °F
Forecast: 92 / 75 °F
Wind: 1 mph from North

Location: Santa Bárbara

Current Time: Jul 21, 2019 at 6:00:22 am

Latest Report: Jul 21, 2019 at 4:50 am


Visibility: 5 mi

Pressure: 30.01 "Hg

Humidity: 88%

Dew Point: 66 °F

Location of Sancti SpíritusLocation

Past Weather in Sancti Spíritus — Graph

°F

Sancti Spíritus Temperature Yesterday

Maximum temperature yesterday: 93 °F (at 1:50 pm)
Minimum temperature yesterday: 72 °F (at 5:54 am)
Average temperature yesterday: 77 °F

High & Low Weather Summary for the Past Weeks

 TemperatureHumidityPressure
High95 °F (Jul 7, 3:50 pm)94% (Jul 6, 3:52 am)30.09 "Hg (Jul 6, 3:52 am)
Low68 °F (Jul 10, 4:50 am)34% (Jul 7, 3:50 pm)29.95 "Hg (Jul 7, 4:51 pm)
Average81 °F74%30.04 "Hg
* Reported Jul 6 3:52 am — Jul 21 3:50 am, Sancti Spíritus. Weather by CustomWeather, © 2019

Note: Actual official high and low records may vary slightly from our data, if they occured in-between our weather recording intervals... More about our weather records

Advertising

Sancti Spíritus Weather History for the Previous 24 Hours

Scroll right to see more
 ConditionsComfort  
Time TempWeatherWind HumidityBarometerVisibility
3:50 am
Sun, Jul 21
70 °FPassing clouds.2 mph88%30.01 "Hg5 mi
2:51 am70 °FPassing clouds.2 mph94%30.01 "Hg5 mi
1:50 am72 °FPassing clouds.2 mph88%30.04 "Hg5 mi
12:50 am72 °FPassing clouds.3 mph88%30.07 "Hg5 mi
11:50 pm
Sat, Jul 20
72 °FPassing clouds.7 mph88%30.07 "Hg5 mi
10:51 pm72 °FPassing clouds.10 mph94%30.07 "Hg5 mi
9:50 pm72 °FPassing clouds.2 mph88%30.01 "Hg5 mi
8:50 pm72 °FPassing clouds.3 mph94%30.04 "Hg5 mi
7:50 pm73 °FPartly sunny.3 mph89%30.07 "Hg5 mi
6:50 pm73 °FScattered showers. Partly sunny.5 mph89%30.04 "Hg5 mi
5:50 pm75 °FSprinkles. Partly sunny.9 mph83%29.98 "Hg5 mi
4:50 pm75 °FRain showers. Partly sunny.13 mph83%30.04 "Hg5 mi
3:51 pm75 °FSprinkles. Partly sunny.5 mph83%30.01 "Hg5 mi
3:18 pm75 °FSprinkles. Partly sunny.7 mph78%N/A5 mi
2:51 pm73 °FStrong thunderstorms. Partly sunny.17 mph78%30.04 "Hg2 mi
2:37 pm81 °FThundershowers. Partly sunny.14 mph74%30.01 "Hg5 mi
1:50 pm93 °FPartly sunny.12 mph47%30.01 "Hg6 mi
12:50 pm91 °FPartly sunny.7 mph49%30.04 "Hg6 mi
11:50 am90 °FScattered clouds.10 mph55%30.04 "Hg6 mi
10:50 am90 °FScattered clouds.12 mph55%30.04 "Hg6 mi
9:54 am86 °FScattered clouds.12 mph66%30.04 "Hg6 mi
8:50 am81 °FPassing clouds.6 mph84%30.04 "Hg6 mi
7:54 am75 °FPassing clouds.5 mph94%30.04 "Hg6 mi
6:51 am72 °FScattered clouds.2 mph94%30.04 "Hg6 mi
Weather by CustomWeather, © 2019

See weather overview